Content
SEND FEEDBACK

Daily
Averages
Monthly
Summary
United States of America

EARTH CITY, MISSOURI


Home > North America > United States > Missouri
Elevation: 476 feet     Latitude: 38 46N     Longitude: 090 30W

WEATHER
 
SELECT A DAY
Number of Records: 203,490;   Date Range: 1/1/95 - 8/12/14
 
SHARE

PRINT THIS DATA

[ ← Previous Day ]
WEATHER ALMANAC - FEBRUARY 20, 2013
[ Next Day → ]
[ °C ]   °F
Weather ElementAverageHighLow
Temperature22.6 °F26.1 °F (2:51 pm)18 °F (5:51 am)
Dewpoint9.4 °F12 °F (9:51 pm)7 °F (2:51 am)
Humidity57.4 %68 % (11:51 pm)49 % (2:51 pm)
Barometer30.39 in30.46 in (10:51 am)30.34 in (3:51 am)
Wind Speed6.4 mph9.2 mph (4:51 pm)
Weather ElementAverage
Visibility10 mi
Wind DirectionSSE (141.7 °)

Weather ElementTotal
Precipitation---
Heating Degree Days43 (Base 65)
Averaged from 23 records on February 20, 2013
WEATHER CONDITIONS BREAKOUT
WIND DIRECTION BREAKOUT
WEATHER BY HOUR - FEBRUARY 20, 2013
[ °C ]   °F
Local TimeTemperatureDewpointHumidityBarometerVisibilityWind DirectionWind SpeedGust SpeedPrecipitationEventsConditions
1:51 AM21.9 °F9.0 °F58 %30.36 in10.0 miWNW (300°)8.1 mphPartly Cloudy
2:51 AM21.9 °F7.0 °F53 %30.35 in10.0 miNW (310°)8.1 mphScattered Clouds
3:51 AM21.0 °F8.1 °F57 %30.34 in10.0 miNorth (10°)6.9 mphScattered Clouds
4:51 AM19.0 °F7.0 °F59 %30.36 in10.0 miNNW (340°)6.9 mphPartly Cloudy
5:51 AM18.0 °F8.1 °F65 %30.39 in10.0 miNNW (340°)5.8 mphPartly Cloudy
6:51 AM18.0 °F8.1 °F65 %30.40 in10.0 miNorth (10°)6.9 mphMostly Cloudy
7:51 AM19.0 °F8.1 °F62 %30.43 in10.0 miNNW (330°)4.6 mphMostly Cloudy
8:51 AM19.9 °F8.1 °F60 %30.45 in10.0 miNW (320°)5.8 mphMostly Cloudy
9:51 AM21.9 °F8.1 °F55 %30.45 in10.0 miNW (320°)5.8 mphMostly Cloudy
10:51 AM21.9 °F9.0 °F58 %30.46 in10.0 miNorth (10°)5.8 mphOvercast
11:51 AM24.1 °F10.0 °F55 %30.45 in10.0 miNNW (340°)8.1 mphOvercast
12:51 PM24.1 °F10.9 °F57 %30.43 in10.0 miVariable5.8 mphOvercast
1:51 PM25.0 °F10.9 °F55 %30.41 in10.0 miCalmOvercast
2:51 PM26.1 °F9.0 °F49 %30.38 in10.0 miNNE (30°)5.8 mphOvercast
3:51 PM26.1 °F9.0 °F49 %30.37 in10.0 miNE (50°)6.9 mphMostly Cloudy
4:51 PM26.1 °F9.0 °F49 %30.36 in10.0 miNE (50°)9.2 mphMostly Cloudy
5:51 PM26.1 °F10.0 °F51 %30.36 in10.0 miENE (60°)5.8 mphMostly Cloudy
6:51 PM25.0 °F10.0 °F53 %30.35 in10.0 miENE (70°)6.9 mphMostly Cloudy
7:51 PM24.1 °F10.9 °F57 %30.36 in10.0 miEast (90°)8.1 mphScattered Clouds
8:51 PM24.1 °F10.9 °F57 %30.37 in10.0 miENE (60°)5.8 mphScattered Clouds
9:51 PM23.0 °F12.0 °F63 %30.36 in10.0 miENE (70°)6.9 mphMostly Cloudy
10:51 PM21.9 °F12.0 °F66 %30.37 in10.0 miENE (60°)6.9 mphScattered Clouds
11:51 PM21.0 °F12.0 °F68 %30.36 in10.0 miEast (90°)5.8 mphScattered Clouds
Hourly data recorded from KSTL, located miles away from Earth City, Missouri







STORIES FROM OUR PARTNERS